Dr. Bill's Marine Weather

Coastal Marine Forecast

       Alabama   Florida   Louisiana   Mississippi

Printer Friendly AL  FL  LA  MS

Data Buoys:   Western Gulf of Mexico    Eastern Gulf of Mexico
**********************************************************************
  Alabama
800 AM CDT MON SEP 01 2014

ALZ051>064-011400-
SOUTHWEST ALABAMA
  
CITY           SKY/WX    TMP DP  RH WIND       PRES   REMARKS
MOBILE         PTSUNNY   80  78  94 CALM      30.09R                  
BROOKLEY FIELD MOSUNNY   83  78  85 SE8       30.08S HX  93           
EVERGREEN      MOSUNNY   75  72  90 CALM      30.11R                  
**********************************************************************
  Florida
900 AM EDT MON SEP 01 2014

FLZ001>010-012>015-112-114-115-011400-
PANHANDLE FLORIDA
  
CITY           SKY/WX    TMP DP  RH WIND       PRES   REMARKS
PENSACOLA      MOSUNNY   79  76  90 NE3       30.08R                  
PENSACOLA NAS  MOSUNNY   84  76  76 SE9       30.07R                  
MILTON NAS     MOSUNNY   78  74  87 E5        30.09R                  
CRESTVIEW      MOSUNNY   75  73  93 CALM      30.12R                  
DUKE FIELD     FAIR      77  77  99 VRB3      30.10R                  
VALPARAISO     PTSUNNY   80  75  84 NE3       30.09R                  
MARY ESTHER    SUNNY     80  73  79 NE2       30.08R                  
TRI COUNTY     FAIR      76  73  91 CALM      30.12R                  
PANAMA CITY    FAIR      78  75  90 E5        30.09R                  
TYNDALL AFB    SUNNY     80  80 100 E3        30.11R                  
APALACHICOLA   SUNNY     79  77  94 E6        30.09R                  

STATION/POSITION SKY/WX   TEMP    WIND        PRES    WAVE   SWELL
                          AIR SEA DIR/SP/G            HT/PER HT/PER
                          (F)     (DEG/KT/KT) (MB)    (FT/S) (FT/S)
30.1N   87.6W              84 85  130/ 10/ 14 1018.3R   3/ 8   3/ 8
29.2N   88.2W              85 85  130/ 14/ 17 1018.0R
28.8N   86.0W              85 86  110/ 10/ 12 1018.6R   4/ 7   3/ 7
PANAMA CITY BEAC           80 86   70/  5/  7 1018.8R
CAPE SAN BLAS    NOT AVBL
TOWER C                    83      90/  7/  7 1019.2R
28.5N   84.5W              85 86  100/ 10/ 12 1018.8R   3/ 5   2/ 5

**********************************************************************
  Louisiana
800 AM CDT MON SEP 01 2014

LAZ040-048-061>063-065-066-069-011400-
SOUTHEAST LOUISIANA
  
CITY           SKY/WX    TMP DP  RH WIND       PRES   REMARKS
N.O. AUDUBON   NOT AVBL                                               
N.O. INTL ARPT PTSUNNY   83  76  79 SE7       30.04R                  
N.O. LAKEFRONT SUNNY     83  78  85 E6        30.05R                  
N.O. DOWNTOWN* FAIR      82  73  74 SE6       30.05R                  
SLIDELL        SUNNY     80  75  84 CALM      30.05R                  
BATON ROUGE    SUNNY     77  75  93 E5        30.04R                  
BOOTHVILLE     MOSUNNY   84  77  79 SE7       30.05R                  
BELLE CHASSE   SUNNY     84  76  76 SE6       30.04R THUNDER          
BOGALUSA*        N/A     75  72  90 CALM      30.08R                  
GALLIANO*      NOT AVBL                                               
NEW ROADS*     FAIR      77  76  98 CALM      30.04R FOG              
GONZALES*      FAIR      78  78 100 CALM      30.03R                  
HAMMOND*       SUNNY     79  75  89 E5        30.07R                  
HOUMA*         MOSUNNY   79  75  89 E2        30.03R                  
PORT FOURCHON* MOSUNNY   86  75  70 SE12      30.03S HX  95           

**********************************************************************
  Mississippi
800 AM CDT MON SEP 01 2014

MSZ080>082-011400-
COASTAL MISSISSIPPI
  
CITY           SKY/WX    TMP DP  RH WIND       PRES   REMARKS
BAY ST LOUIS   MOSUNNY  N/A N/A N/A CALM      30.06                   
BILOXI         MOSUNNY   84  75  75 S8        30.06S HX  92           
PASCAGOULA     MOSUNNY   78  75  90 CALM      30.07R                  
GULFPORT       PTSUNNY   82  76  81 SE8       30.06R                  
About Us | Coastal Marine Forecast | Offshore Marine Forecast | Marine Weather Discussion
Gulf Coast Tides | Exxon Mobil Platform 112B | Hourly Weather Observations | Weather Radar
Severe Weather Potential | Sea Surface Temperatures | Solar/Lunar Data | Hurricane Advisories | Home
     
USA Logo Dr. Bill's Marine Weather
Last date changed: February 4, 2005 12:04 PM
www.gulfmarineweather.com/hourlyweatherobservations.shtml
Contact Us